Weather WX

World > North America > United States > Pennsylvania

Basket, Pennsylvania Regional Weather

Lat: 40.39N, Lon: 75.83W
Wx Zone: PAZ060
Warning FLW WEATHER ALERT - (More Info. Click Here) Warning
Feedback

Basket, PA Regional Weather

Expires:201906200400;;763805
ASUS41 KOKX 200313
RWROKX

Regional Weather Roundup
National Weather Service New York NY
1100 PM EDT WED JUN 19 2019

Note: "FAIR" indicates few or no clouds below 12,000 feet with no
significant weather and/or obstructions to visibility.


PAZ047>061-062-071-200400-
Eastern Pennsylvania
  
CITY           SKY/WX    TMP DP  RH WIND       PRES   REMARKS
Philadelphia   CLOUDY    72  70  93 E8        29.72                   
Allentown      CLOUDY    71  67  87 E7        29.75S                  
Scranton       MOCLDY    71  67  87 CALM      29.74F                  
$$


SKY/WX - Weather  TMP - Temperature  DP - Dew Point  RH - Relative Humidity
WIND - Wind Direction/Speed PRES - Barometric Pressure VSB - Visibility
WCI - Wind Chill Index E13G22 Wind - East Wind 13 mph/Gusts of 22 mph